Tracking 19475 objects as of 18-Jan-2019
HD Live streaming from Space Station
objects crossing your sky now

HODOYOSHI 4

Track HODOYOSHI 4 now!
10-day predictions
HODOYOSHI 4 is classified as:


NORAD ID: 40011
Int'l Code: 2014-033B
Perigee: 614.6 km
Apogee: 651.6 km
Inclination: 97.8 °
Period: 97.2 minutes
Semi major axis: 7004 km
RCS: Unknown
Launch date: June 19, 2014
Source: Japan (JPN)
Launch site: Orenburg, Russia (OREN)
aabbcc
Your satellite tracking list
Your tracking list is empty




NASA's NSSDC Master Catalog

Two Line Element Set (TLE):
1 40011U 14033B   19018.46304989  .00000026  00000-0  10114-4 0  9998
2 40011  97.8328 275.2218 0026463 180.0861 180.0343 14.81067663247641
Source of the keplerian elements: AFSPC